Location: Chanteloup
(48.8560°N, 2.7390°E)
Time: 04:25:19
(UTC+00:00)

Cosmos 2322 Rocket - Pass Details

Date: 06 June 2022
Orbit: 833 x 850 km, 71.0° (Epoch: 05 July)

Event Time Altitude Azimuth Distance (km) Brightness Sun altitude
Rises 21:12:27 0° 234° (SW) 3,371 5.3 -10.5°
Reaches altitude 10° 21:15:05 10° 243° (WSW) 2,440 4.7 -10.7°
Maximum altitude 21:20:12 36° 310° (NW) 1,297 3.9 -11.2°
Drops below altitude 10° 21:25:23 10° 16° (NNE) 2,456 5.2 -11.7°
Sets 21:28:02 0° 25° (NNE) 3,396 5.8 -11.9°
